x

Gravelly Shoals Light Mi (gslm4) Weather Station

4:40pm - Fri 29th May 2015 All times are CDT. -5 hours from GMT.

  • Wind
    18mph, 20mph gusts
  • Air Temp 78°f
  • Sea Pressure 1014.9mb
  • Gravelly Shoals Light Mi
  • Gravelly Shoals Light Mi

More Historic Weather Station data

Upgrade to MSW Pro to gain access to the past 30 days of data for over 8000 Wavebouys and Weather Stations around the globe.

Join Pro

Comparision Forecast

View Surf forecast
   
Fri 05/29 4:40pm 18 20 mph 1014.9mb 78f
4:30pm 14 15 mph 1015.2mb 77f
4:20pm 14
mph
1015.2mb 78f
4:10pm 13
mph
1015.2mb 79f
4:08pm 11 16 mph 1015.2mb 79f
4:00pm 11 16 mph 1015.6mb 79f
3:40pm 3 6 mph 1015.6mb 81f
3:30pm  -  8 mph 1015.9mb 79f
3:20pm 8
mph
1016.3mb 78f
3:10pm 7 8 mph 1016.3mb 77f
3:08pm 7
mph
1016.3mb 77f
3:00pm  -  2 mph 1016.3mb 77f
2:40pm  -  2 mph 1016.9mb 75f
2:30pm  -  2 mph 1016.9mb 76f
2:20pm  -  2 mph 1016.9mb 75f
2:10pm  -  5 mph 1017.3mb 75f
2:08pm 1 5 mph 1017.3mb 75f
2:00pm 2 3 mph 1017.3mb 75f
1:40pm 1 2 mph 1017.6mb 74f
1:30pm  -  1 mph 1017.6mb 74f
1:20pm  -  3 mph 1017.9mb 75f
1:10pm 2 3 mph 1017.9mb 74f
1:07pm 1 11 mph 1018.3mb 73f
1:00pm  -  8 mph 1018.3mb 73f
12:40pm 7 10 mph 1018.6mb 72f
12:30pm 9 10 mph 1018.6mb 71f
12:20pm 10 11 mph 1019mb 70f
12:10pm 11
mph
1019mb 70f
12:07pm 10
mph
1019mb 69f
12:00pm 9
mph
1019mb 69f
11:40am 5 9 mph 1019.3mb 68f
11:30am 7 8 mph 1019.6mb 68f
11:20am 1 8 mph 1019.6mb 68f
11:10am 7 10 mph 1019.6mb 67f
11:06am 9 14 mph 1019.6mb 68f
11:00am 9 13 mph 1020mb 68f
10:40am 3 13 mph 1019.6mb 68f
10:30am 8 13 mph 1019.6mb 67f
10:20am 1 3 mph 1019.6mb 67f
10:10am 2 3 mph 1019.6mb 67f
10:06am 2 11 mph 1019.6mb 67f
10:00am 2 5 mph 1020mb 67f
9:40am 5 7 mph 1019.6mb 68f
9:30am 5 8 mph 1020mb 66f
9:20am 7 11 mph 1020mb 67f
9:10am 9 11 mph 1020mb 65f
9:06am 2 22 mph 1020mb 64f
9:00am 3 13 mph 1020mb 66f
8:40am 17 21 mph 1020mb 67f
8:30am 20 22 mph 1019.6mb 67f
8:20am 20 22 mph 1019.6mb 67f
8:10am 21 23 mph 1019.6mb 67f
8:05am 21 26 mph 1019.6mb 67f
8:00am 23 24 mph 1019.6mb 67f
7:40am 23 26 mph 1019.6mb 66f
7:30am 24 26 mph 1019.6mb 66f
7:20am 24 26 mph 1020mb 66f
7:10am 24 28 mph 1020mb 66f
7:05am 24 29 mph 1020mb 65f
7:00am 25 29 mph 1020mb 65f
6:40am 24 26 mph 1020.3mb 65f
6:30am 24 25 mph 1020.3mb 65f
6:20am 22 23 mph 1020.3mb 65f
6:10am 20 21 mph 1020.7mb 65f
6:04am 17 20 mph 1020.7mb 64f
6:00am 16 20 mph 1020.7mb 64f
5:40am 17 20 mph 1021mb 64f
5:30am 17 18 mph 1021mb 64f
5:20am 15 16 mph 1021mb 64f
5:10am 15 17 mph 1021mb 64f
5:04am 16 20 mph 1021mb 64f
5:00am 17 18 mph 1021mb 64f
4:40am 16 18 mph 1021mb 65f
4:30am 16 17 mph 1021.3mb 65f
4:20am 16 18 mph 1021mb 65f
4:10am 17 18 mph 1021.3mb 65f
4:04am 17 21 mph 1021.3mb 65f
4:00am 16 17 mph 1021.3mb 65f
3:40am 17 18 mph 1021.3mb 65f
3:30am 17 18 mph 1021.3mb 65f
3:20am 17 21 mph 1021.7mb 66f
3:10am 17 20 mph 1021.7mb 66f
3:03am 17 20 mph 1021.7mb 66f
3:00am 18 20 mph 1021.7mb 66f
2:40am 18
mph
1021.7mb 67f
2:30am 17 18 mph 1022mb 67f
2:20am 17 18 mph 1022mb 67f
2:10am 16 18 mph 1022mb 67f
2:03am 16 23 mph 1022mb 67f
2:00am 17 18 mph 1022mb 67f
1:40am 21 23 mph 1022mb 67f
1:30am 22 23 mph 1022mb 67f
1:20am 21
mph
1022mb 67f
1:10am 18 20 mph 1022mb 67f
1:02am 18 24 mph 1022mb 67f
1:00am 20 22 mph 1022mb 67f
12:40am 20 21 mph 1021.7mb 68f
12:30am 21 22 mph 1021.7mb 68f
12:20am 22 23 mph 1021.7mb 68f
12:10am 21 24 mph 1021.7mb 68f
12:02am 23 26 mph 1021.7mb 68f
12:00am 23 25 mph 1021.7mb 68f
Thu 05/28 11:40pm 24 25 mph 1021.7mb 68f
11:30pm 24 26 mph 1022mb 69f
11:20pm 24 25 mph 1022mb 69f
11:10pm 23 24 mph 1022mb 69f
11:02pm 23 24 mph 1022mb 69f
11:00pm 23 24 mph 1022mb 69f
10:40pm 23 24 mph 1022mb 70f
10:30pm 22 23 mph 1022mb 70f
10:20pm 22
mph
1022mb 70f
10:10pm 22 23 mph 1022mb 71f
10:01pm 23 24 mph 1022mb 72f
10:00pm 23 24 mph 1022mb 72f
9:40pm 21 22 mph 1022.4mb 71f
9:30pm 20 21 mph 1022.4mb 70f
9:20pm 14 16 mph 1022.4mb 70f
9:10pm 7 9 mph 1022.4mb 69f
9:01pm 8 14 mph 1022.4mb 71f
9:00pm 8 11 mph 1022mb 71f
8:40pm 13 14 mph 1022mb 74f
8:30pm 13 14 mph 1022mb 74f
8:20pm 10 11 mph 1022mb 75f
8:10pm 10 13 mph 1022mb 75f
8:00pm 10 11 mph 1022mb 75f
7:40pm 10 11 mph 1022mb 75f
7:30pm 10
mph
1022mb 75f
7:20pm 9 11 mph 1022mb 75f
7:10pm 10 11 mph 1022mb 75f
7:00pm 11 14 mph 1022mb 74f
6:30pm 10 14 mph 1022mb 72f
6:20pm 13
mph
1022mb 71f
6:10pm 13 14 mph 1022mb 69f
6:00pm 13 14 mph 1022mb 72f
5:40pm 13 14 mph 1022mb 71f
5:30pm 10 11 mph 1022mb 70f
5:20pm 9 10 mph 1022mb 71f
5:10pm 9 10 mph 1022.4mb 69f
5:00pm 8 9 mph 1022.4mb 72f
4:50pm 9 11 mph 1022.4mb 71f
4:40pm 10 11 mph 1022.4mb 70f
4:30pm 6 7 mph 1022.4mb 74f
4:20pm 6 9 mph 1022.4mb 73f
4:10pm 9 10 mph 1022.4mb 72f
4:00pm 7 8 mph 1022.4mb 72f
3:50pm 7
mph
1022.4mb 72f
3:40pm 7
mph
1022.4mb 72f
3:30pm 6 7 mph 1022.4mb 72f
3:20pm 6
mph
1022.4mb 72f
3:12pm 5 7 mph 1022.4mb 72f
3:10pm 5
mph
1022.7mb 72f
3:00pm 5
mph
1022.7mb 71f
2:50pm 5 6 mph 1022.7mb 71f
2:40pm 5 6 mph 1022.7mb 71f
2:30pm 6
mph
1022.7mb 71f
2:20pm 6 7 mph 1023mb 71f
2:11pm 7 9 mph 1022.7mb 71f
2:10pm 7
mph
1023mb 71f
2:00pm 7
mph
1023mb 70f
1:50pm 7
mph
1023mb 70f
1:40pm 7 8 mph 1023.4mb 69f
1:30pm 8 9 mph 1023.4mb 69f
1:20pm 8
mph
1023.7mb 69f
1:11pm 8 9 mph 1023.7mb 69f
1:10pm 8 9 mph 1023.7mb 69f
1:00pm 9
mph
1023.7mb 69f
12:50pm 3 6 mph 1024mb 69f
12:40pm 3 6 mph 1024mb 69f
12:30pm 2 5 mph 1024mb 69f
12:20pm 1 6 mph 1024.4mb 68f
12:11pm 3 8 mph 1024.4mb 69f
12:10pm 3 7 mph 1024.4mb 69f
12:00pm 3 6 mph 1024.4mb 68f
11:50am 3 6 mph 1024.4mb 68f
11:40am 3 7 mph 1024.4mb 67f
11:30am 3 8 mph 1024.4mb 67f
11:20am 5 8 mph 1024.4mb 67f
11:10am 3 8 mph 1024.4mb 66f
11:00am 3 7 mph 1024mb 65f
10:50am 6 7 mph 1024mb 65f
10:40am 2 8 mph 1024mb 65f
10:30am 5 8 mph 1024mb 65f
10:20am 3 8 mph 1024mb 65f
10:10am 5 11 mph 1024mb 65f
10:00am 8 11 mph 1023.7mb 64f
9:50am 8 10 mph 1023.7mb 64f
9:40am 7 10 mph 1023.7mb 64f
9:30am 6 10 mph 1023.7mb 64f
9:20am 7 9 mph 1023.7mb 64f
9:10am 3 9 mph 1023.7mb 64f
9:09am 5 11 mph 1023.7mb 64f
9:00am 7 11 mph 1023.7mb 64f
8:50am 7 10 mph 1023.7mb 64f
8:40am 6 9 mph 1023.7mb 64f
8:30am 5 7 mph 1023.7mb 63f
8:20am 3 7 mph 1024mb 63f
8:10am 6 7 mph 1024mb 62f
8:09am 6 7 mph 1024mb 63f
8:00am 6 7 mph 1024mb 62f
7:50am 1 2 mph 1024mb 61f
7:40am 1 5 mph 1024mb 62f
7:30am 3 6 mph 1024mb 61f
7:20am 5 7 mph 1023.7mb 63f
7:10am 5 7 mph 1023.7mb 62f
7:09am 6 8 mph 1023.7mb 62f
7:00am 5 7 mph 1023.4mb 62f
6:50am 6 7 mph 1023.4mb 63f
6:40am 6 8 mph 1023.4mb 62f
6:30am 6 8 mph 1023mb 63f
6:20am 5 8 mph 1023mb 63f
6:10am 3 7 mph 1023mb 63f
6:08am 2 14 mph 1023mb 63f
6:00am 3 11 mph 1023mb 62f
5:50am 13 14 mph 1023mb 61f
5:40am 3 5 mph 1022.7mb 62f
5:30am 3 6 mph 1022.7mb 62f
5:20am 3 5 mph 1022.7mb 61f
5:10am  -  3 mph 1022.4mb 62f
5:08am 1 7 mph 1022.4mb 62f
5:00am 1 7 mph 1022.4mb 62f
4:50am 2 3 mph 1022.4mb 63f
4:40am 2 5 mph 1022mb 63f
4:30am 3 6 mph 1022mb 62f
4:20am 2 3 mph 1022mb 62f
4:10am  -  6 mph 1021.7mb 62f
4:07am 5 6 mph 1021.7mb 62f
4:00am 3 5 mph 1021.7mb 62f
3:50am  -  2 mph 1021.3mb 62f
3:40am 3 6 mph 1021.3mb 62f
3:30am 5
mph
1021.3mb 62f
3:20am  -  2 mph 1021.3mb 62f
3:10am 2 6 mph 1021.3mb 63f
3:07am 5 7 mph 1021.7mb 62f
3:00am 6 7 mph 1021.3mb 62f
2:50am 6 7 mph 1021.3mb 62f
2:40am 3 5 mph 1021.3mb 61f
2:30am 3 6 mph 1021mb 60f
2:20am 6
mph
1021.3mb 60f
2:10am 5 8 mph 1021mb 59f
2:07am 6 9 mph 1021mb 60f
2:00am 6 7 mph 1021mb 60f
1:50am 7
mph
1020.7mb 61f
1:40am 6 7 mph 1020.3mb 61f
1:30am 7 9 mph 1020.7mb 61f
1:20am 9
mph
1020.7mb 61f
1:10am 7
mph
1020.3mb 61f
1:06am 6 9 mph 1020.3mb 61f
1:00am 3 5 mph 1020mb 62f
12:50am 5
mph
1019.6mb 62f
12:40am 5 6 mph 1019.6mb 62f
12:30am 6 7 mph 1019.6mb 62f
12:20am 6 7 mph 1019.6mb 62f
12:10am 6 9 mph 1019.6mb 62f
12:06am 9
mph
1019.6mb 62f
12:00am 8 9 mph 1019.6mb 62f
Wed 05/27 11:50pm 7 8 mph 1019.3mb 61f
11:40pm 8
mph
1019.3mb 62f
11:30pm 8
mph
1019.3mb 62f
11:20pm 8
mph
1019mb 62f
11:10pm 7
mph
1019mb 62f
11:05pm 7 11 mph 1019mb 62f
11:00pm 7 8 mph 1019mb 63f
10:50pm 7 10 mph 1019mb 63f
10:40pm 10 11 mph 1019mb 64f
10:30pm 10 11 mph 1018.6mb 64f
10:20pm 10
mph
1018.6mb 64f
10:10pm 9 10 mph 1018.3mb 64f
10:05pm 9 13 mph 1018.3mb 64f
10:00pm 10 11 mph 1018.3mb 64f
9:50pm 9 10 mph 1018.3mb 64f
9:40pm 9 10 mph 1018.3mb 65f
9:30pm 9 13 mph 1018.3mb 65f
9:20pm 8 10 mph 1018.3mb 65f
9:10pm 9 11 mph 1018.3mb 66f
9:05pm 10 24 mph 1017.9mb 66f
9:00pm 10 13 mph 1017.9mb 66f
8:50pm 11 15 mph 1017.6mb 66f
8:40pm 15 20 mph 1017.6mb 67f
8:30pm 17 20 mph 1017.3mb 66f
8:20pm 18 24 mph 1016.9mb 67f
8:10pm 18 23 mph 1016.6mb 67f
8:04pm 17 23 mph 1016.3mb 68f
8:00pm 17 20 mph 1016.3mb 68f
7:50pm 15 20 mph 1016.3mb 68f
7:40pm 17 21 mph 1015.9mb 69f
7:30pm 20 21 mph 1015.6mb 68f
7:20pm 17 20 mph 1015.2mb 68f
7:10pm 18 23 mph 1015.2mb 68f
7:04pm 20 25 mph 1014.9mb 69f
7:00pm 22 25 mph 1014.9mb 69f
6:50pm 21 25 mph 1014.6mb 70f
6:40pm 22 25 mph 1014.6mb 70f
6:30pm 22 24 mph 1014.6mb 69f
6:20pm 21 23 mph 1014.2mb 67f
6:10pm 16 18 mph 1013.9mb 67f
6:03pm 17 23 mph 1013.9mb 66f
6:00pm 20 21 mph 1013.9mb 66f
5:50pm 20 22 mph 1013.5mb 69f
5:40pm 21 23 mph 1013.5mb 68f
5:30pm 21 22 mph 1013.5mb 68f
5:20pm 17 20 mph 1013.5mb 68f
5:10pm 16 24 mph 1013.5mb 69f
5:03pm 23 28 mph 1013.5mb 70f
5:00pm 23 28 mph 1013.5mb 70f
4:50pm 24 28 mph 1013.5mb 68f
4:40pm 15 21 mph 1013.5mb 66f
4:30pm 18 21 mph 1013.2mb 67f
4:20pm 16 23 mph 1012.9mb 68f
4:10pm 23 26 mph 1012.5mb 69f
4:03pm 23
mph
1012.5mb 69f
4:00pm 23 31 mph 1012.5mb 69f
3:50pm 29 32 mph 1012.5mb 69f
3:40pm 24 25 mph 1012.5mb 67f
3:30pm 22 23 mph 1012.5mb 67f
3:20pm 21 24 mph 1012.5mb 67f
3:10pm 24 28 mph 1012.5mb 67f
3:02pm 26
mph
1012.5mb 66f
3:00pm 26 28 mph 1012.5mb 66f
2:50pm 28 29 mph 1012.5mb 67f
2:40pm 28 30 mph 1012.5mb 67f
2:30pm 24 30 mph 1012.5mb 69f
2:20pm 25 31 mph 1012.5mb 68f
2:10pm 29 31 mph 1012.5mb 68f
2:02pm 24 29 mph 1012.5mb 67f
2:00pm 23 26 mph 1012.5mb 67f
1:50pm 23 25 mph 1012.5mb 67f
1:40pm 22 28 mph 1012.2mb 65f
1:30pm 17 29 mph 1012.5mb 66f
1:20pm 24 28 mph 1011.9mb 66f
1:10pm 14 17 mph 1012.2mb 65f
1:01pm 17
mph
1012.2mb 66f
1:00pm 17 24 mph 1012.2mb 66f
12:50pm 24 26 mph 1012.2mb 67f
12:40pm 20 24 mph 1012.2mb 67f
12:30pm 21 26 mph 1012.2mb 66f
12:20pm 26 29 mph 1012.2mb 67f
12:12pm 24 29 mph 1012.2mb 67f
12:10pm 18 24 mph 1011.9mb 67f
12:01pm 23 25 mph 1011.9mb 67f
12:00pm 23 25 mph 1011.9mb 67f
11:50am 18 25 mph 1011.9mb 67f
11:40am 10 15 mph 1011.9mb 65f
11:30am 6 8 mph 1011.9mb 65f
11:20am 6 9 mph 1012.2mb 65f
11:10am 6 8 mph 1011.9mb 66f
11:00am 5 9 mph 1011.9mb 64f
10:50am 7 9 mph 1011.9mb 65f
10:40am 5 18 mph 1011.9mb 64f
10:30am 18 20 mph 1011.9mb 63f
10:20am 11 14 mph 1012.2mb 64f
10:10am 7 14 mph 1011.9mb 64f
10:00am 13 16 mph 1012.2mb 64f
9:50am 10 14 mph 1011.9mb 64f
9:40am 6 9 mph 1011.9mb 64f
9:30am 7 10 mph 1011.9mb 64f
9:20am 6 8 mph 1011.9mb 64f
9:10am 5 7 mph 1011.9mb 64f
9:00am 5 9 mph 1011.9mb 64f
8:50am 6 9 mph 1011.9mb 64f
8:40am 3 8 mph 1011.5mb 64f
8:30am 5 8 mph 1011.5mb 64f
8:20am 5 8 mph 1011.5mb 63f
8:10am 3 7 mph 1011.5mb 64f
8:00am 5 9 mph 1011.2mb 63f
7:50am 6 8 mph 1011.2mb 63f
7:40am 3 7 mph 1011.2mb 63f
7:30am 3 7 mph 1011.2mb 63f
7:20am 5 9 mph 1011.2mb 63f
7:10am 5 10 mph 1010.8mb 63f
7:00am 7 11 mph 1011.2mb 64f
6:50am 6 10 mph 1011.2mb 63f
6:40am 7 10 mph 1011.2mb 63f
6:30am 7 10 mph 1010.8mb 64f
6:28am 7 11 mph 1010.8mb 63f
6:20am 8 11 mph 1011.2mb 63f
6:10am 8 11 mph 1011.2mb 63f
6:00am 9 11 mph 1010.8mb 63f
5:50am 8 10 mph 1010.8mb 62f
5:40am 7 10 mph 1010.8mb 62f
5:30am 7 10 mph 1010.8mb 62f
5:28am 7 13 mph 1010.8mb 63f
5:20am 8 11 mph 1010.8mb 63f
5:10am 8 13 mph 1010.5mb 63f
5:00am 10 11 mph 1010.5mb 63f
4:50am 9 11 mph 1010.5mb 62f
4:40am 8 10 mph 1010.5mb 63f
4:30am 7 10 mph 1010.5mb 63f
4:27am 7 10 mph 1010.2mb 63f
4:20am 7 9 mph 1010.2mb 63f
4:10am 6 9 mph 1010.5mb 63f
4:00am 6 8 mph 1010.5mb 63f
3:50am 5 9 mph 1010.5mb 64f
3:40am 6 10 mph 1010.5mb 64f
3:30am 6 10 mph 1010.5mb 63f
3:27am 8 13 mph 1010.5mb 63f
3:20am 7 10 mph 1010.5mb 63f
3:10am 5 6 mph 1010.5mb 63f
3:00am 5 9 mph 1010.5mb 63f
2:50am 7 13 mph 1010.5mb 64f
2:40am 9 11 mph 1010.5mb 64f
2:30am 9 11 mph 1010.5mb 64f
2:26am 8 10 mph 1010.5mb 64f
2:20am 5 7 mph 1010.5mb 63f
2:10am 5 8 mph 1010.5mb 63f
2:00am 3 8 mph 1010.5mb 63f
1:50am 6 8 mph 1010.5mb 64f
1:40am 3 9 mph 1010.5mb 64f
1:30am 5 11 mph 1010.5mb 64f
1:26am 7 17 mph 1010.5mb 64f
1:20am 9 10 mph 1010.5mb 64f
1:10am 6 11 mph 1010.5mb 65f
1:00am 9 13 mph 1010.2mb 65f
12:50am 9 15 mph 1010.2mb 65f
12:40am 11 17 mph 1010.2mb 65f
12:30am 14 17 mph 1010.2mb 65f
12:26am 13 17 mph 1010.2mb 65f
12:20am 13 17 mph 1010.2mb 65f
12:10am 14 17 mph 1010.2mb 65f
12:00am 13 17 mph 1010.2mb 65f
Tue 05/26 11:50pm 14 17 mph 1010.2mb 65f
11:40pm 11 16 mph 1010.2mb 64f
11:30pm 10 14 mph 1010.2mb 64f
11:25pm 10 13 mph 1010.2mb 64f
11:20pm 10 13 mph 1010.2mb 64f
11:10pm 8 11 mph 1010.2mb 65f
11:00pm 9 11 mph 1010.2mb 64f
10:50pm 8 11 mph 1010.2mb 65f
10:40pm 8 11 mph 1010.2mb 65f
10:30pm 9 13 mph 1010.2mb 65f
10:25pm 9 14 mph 1010.2mb 65f
10:20pm 10 14 mph 1010.2mb 65f
10:10pm 10 14 mph 1010.2mb 66f
10:00pm 10 13 mph 1010.2mb 66f
9:50pm 9 13 mph 1010.2mb 66f
9:40pm 9 15 mph 1010.5mb 67f
9:30pm 9 18 mph 1010.2mb 67f
9:24pm 13
mph
1010.2mb 68f
9:20pm 16 28 mph 1010.2mb 68f
9:10pm 24 26 mph 1009.8mb 67f
9:00pm 23 24 mph 1009.8mb 67f
8:50pm 23 29 mph 1009.8mb 67f
8:40pm 24 28 mph 1009.8mb 66f
8:30pm 22 24 mph 1009.8mb 67f
8:24pm 21 22 mph 1009.8mb 66f
8:20pm 21 22 mph 1009.8mb 66f
8:10pm 15 18 mph 1009.8mb 66f
8:00pm 13 18 mph 1010.2mb 66f
7:40pm 7 11 mph 1010.2mb 65f
7:30pm 6 11 mph 1010.5mb 65f
7:24pm 8
mph
1010.5mb 65f
7:20pm 9 25 mph 1010.5mb 65f
7:10pm 23 25 mph 1010.5mb 64f
7:00pm 10 11 mph 1010.5mb 64f
6:50pm 8 28 mph 1010.2mb 65f
6:34pm 29 41 mph 1010.8mb 72f
6:30pm 10 17 mph 1010.2mb 72f
6:23pm 8 15 mph 1009.5mb 68f
6:20pm 3 9 mph 1009.5mb 68f
6:10pm 2 11 mph 1009.5mb 70f
6:00pm 10 15 mph 1009.5mb 71f
5:50pm 15
mph
1009.1mb 71f
5:40pm 10 14 mph 1009.8mb 71f
5:30pm 11 13 mph 1010.2mb 72f
5:23pm 11 15 mph 1010.2mb 71f
5:20pm 13 15 mph 1010.2mb 71f
5:10pm 14 15 mph 1010.5mb 71f
5:00pm 11
mph
1010.5mb 71f
4:50pm 8 11 mph 1010.8mb 71f
4:40pm 6 7 mph 1011.2mb 72f
4:30pm 6 8 mph 1011.5mb 72f
4:22pm 2 10 mph 1011.5mb 70f
4:20pm 3 6 mph 1011.5mb 70f
4:10pm 6 10 mph 1011.5mb 70f
4:00pm 2 3 mph 1011.5mb 75f
3:50pm  -  3 mph 1011.9mb 74f
3:40pm  -  2 mph 1012.2mb 73f
3:30pm  -  3 mph 1012.5mb 72f
3:22pm 1 8 mph 1012.5mb 73f
3:20pm  -  3 mph 1012.5mb 73f
3:10pm 2 3 mph 1012.5mb 74f
3:00pm  -  3 mph 1012.9mb 72f
2:50pm 2 5 mph 1013.2mb 71f
2:40pm 5 8 mph 1013.5mb 71f
2:30pm 7 8 mph 1013.5mb 71f
2:21pm 6 15 mph 1013.9mb 71f
2:20pm 6 7 mph 1013.9mb 71f
2:10pm 7 9 mph 1014.2mb 71f
2:00pm 9 11 mph 1014.2mb 71f
1:50pm 10 14 mph 1014.6mb 71f
1:40pm 14
mph
1014.9mb 70f
1:30pm 13 15 mph 1014.9mb 70f
1:21pm 13 16 mph 1015.2mb 71f
1:20pm 13 16 mph 1015.2mb 71f
1:10pm 14 15 mph 1014.9mb 67f
1:00pm 14 15 mph 1015.2mb 68f
12:50pm 15 16 mph 1015.6mb 69f
12:40pm 11 13 mph 1015.2mb 70f
12:30pm 11 15 mph 1015.6mb 69f
12:21pm 11 14 mph 1015.6mb 68f
12:20pm 11 14 mph 1015.6mb 68f
12:10pm 10 13 mph 1015.6mb 69f
12:00pm 10 11 mph 1015.6mb 69f
11:50am 5 7 mph 1015.9mb 70f
11:40am 5 9 mph 1015.9mb 69f
11:30am 5 8 mph 1016.3mb 69f
11:20am 5 9 mph 1016.3mb 68f
11:10am 5 8 mph 1016.3mb 67f
11:00am 6 9 mph 1016.3mb 67f
10:50am 6 8 mph 1016.3mb 67f
10:40am 6 8 mph 1016.3mb 67f
10:30am 7 9 mph 1016.3mb 67f
10:20am 7 10 mph 1016.3mb 67f
10:10am 6 9 mph 1016.3mb 67f
10:00am 7 10 mph 1016.3mb 66f
9:50am 6 8 mph 1016.3mb 66f
9:40am 3 7 mph 1016.3mb 67f
9:30am 6 8 mph 1016.3mb 65f
9:20am 6 9 mph 1016.3mb 65f
9:19am 7 11 mph 1016.3mb 65f
9:10am 8 10 mph 1016.3mb 65f
9:00am 7 11 mph 1016.3mb 65f
8:50am 8 11 mph 1016.6mb 64f
8:40am 8 11 mph 1016.3mb 65f
8:30am 5 7 mph 1016.3mb 64f
8:20am 6 8 mph 1016.3mb 64f
8:19am 6 10 mph 1016.3mb 64f
8:10am 6 8 mph 1016.6mb 64f
8:00am 7 9 mph 1016.6mb 64f
7:50am 8 10 mph 1016.6mb 64f
7:40am 6 9 mph 1016.6mb 64f
7:30am 8 9 mph 1016.3mb 64f
7:20am 6 8 mph 1016.6mb 62f
7:19am 7 8 mph 1016.6mb 62f
7:10am 5 6 mph 1016.6mb 62f
7:00am 3 5 mph 1016.6mb 62f
6:50am 2 5 mph 1016.6mb 61f
6:40am 3 6 mph 1016.6mb 61f
6:30am 2 5 mph 1016.6mb 62f
6:20am 3 5 mph 1016.3mb 62f
6:18am 3 7 mph 1016.3mb 62f
6:10am 3 5 mph 1015.9mb 62f
6:00am 3 7 mph 1015.9mb 62f
5:50am 5 7 mph 1015.9mb 62f
5:40am 5 6 mph 1015.6mb 62f
5:30am 3 5 mph 1015.6mb 62f
5:20am 3 5 mph 1015.6mb 62f
5:18am 3 6 mph 1015.6mb 62f
5:10am 3 5 mph 1015.6mb 62f
5:00am 3 6 mph 1015.6mb 62f
4:50am 3 6 mph 1015.6mb 62f
4:40am 3 5 mph 1015.2mb 62f
4:30am 3 5 mph 1015.2mb 62f
4:20am 3 6 mph 1015.2mb 63f
4:17am 3 14 mph 1014.9mb 63f
4:10am 5 8 mph 1015.2mb 63f
4:00am 5 7 mph 1014.9mb 63f
3:50am 3 6 mph 1014.9mb 62f
3:40am 5 11 mph 1014.9mb 63f
3:30am 8 14 mph 1015.2mb 62f
3:20am 10 11 mph 1015.2mb 62f
3:17am 8 17 mph 1015.2mb 62f
3:10am 3 9 mph 1015.2mb 62f
3:00am 6 11 mph 1014.9mb 63f
2:50am 13 16 mph 1014.9mb 63f
2:40am 16 17 mph 1014.9mb 63f
2:30am 16 17 mph 1014.9mb 63f
2:20am 7 9 mph 1014.9mb 63f
2:17am 7 15 mph 1014.9mb 62f
2:10am 6 14 mph 1014.9mb 63f
2:00am 11 15 mph 1014.6mb 64f
1:50am 7 10 mph 1014.6mb 64f
1:40am 10 14 mph 1014.6mb 64f
1:30am 8 10 mph 1014.6mb 62f
1:20am 2 6 mph 1014.6mb 63f
1:16am 3 11 mph 1014.9mb 62f
1:10am 3 5 mph 1014.9mb 63f
1:00am 5 7 mph 1014.9mb 63f
12:50am 3 9 mph 1014.9mb 64f
12:40am 8 9 mph 1014.6mb 64f
12:30am 7 9 mph 1014.6mb 65f
12:20am 8 11 mph 1014.6mb 65f
12:16am 8 13 mph 1014.6mb 65f
12:10am 9 13 mph 1014.6mb 65f
12:00am 7 13 mph 1014.2mb 65f
Mon 05/25 11:50pm 9 11 mph 1014.6mb 66f
11:40pm 7 11 mph 1014.2mb 65f
11:30pm 5 11 mph 1014.6mb 65f
11:20pm 9 11 mph 1014.2mb 66f
11:15pm 8 10 mph 1014.2mb 65f
11:10pm 9 10 mph 1014.2mb 65f
11:00pm 8 10 mph 1014.2mb 65f
10:50pm 6 10 mph 1014.2mb 65f
10:40pm 7 10 mph 1014.2mb 65f